Location: Laura�t
(43.9341°N, 0.2497°E)
Time: 09:33:41
(UTC+00:00)

SL-4 R/B - Pass Details

Date: 03 March 2021
Orbit: 428 x 663 km, 51.6° (Epoch: 18 April)

Event Time Altitude Azimuth Distance (km) Brightness Sun altitude
Rises 18:09:35 0° 291° (WNW) 2,527 6.8 -4.3°
Reaches altitude 10° 18:12:07 10° 306° (NW) 1,611 5.2 -4.8°
Maximum altitude 18:15:03 23° 1° (N) 1,007 3.3 -5.3°
Drops below altitude 10° 18:17:52 10° 55° (NE) 1,548 3.8 -5.8°
Enters shadow 18:18:48 - 63° (ENE) 1,865 4.2 -6.0°
